Location: Nelson
(41.2830°S, 173.2830°E)
Time: 19:17:23
(UTC+12:00)

Meteor 2-15 Rocket - Pass Details

Date: 14 May 2021
Orbit: 940 x 955 km, 82.5° (Epoch: 19 June)

Event Time Altitude Azimuth Distance (km) Brightness Sun altitude
Rises 18:33:22 0° 187° (S) 3,652 7.5 -14.1°
Reaches altitude 10° 18:35:54 10° 185° (S) 2,698 6.8 -14.5°
Maximum altitude 18:42:05 78° 99° (E) 976 4.4 -15.7°
Drops below altitude 10° 18:48:11 10° 12° (NNE) 2,658 6.8 -16.8°
Sets 18:50:39 0° 10° (N) 3,594 7.5 -17.2°
